GW5484 Weather Reports


time (UTC)temp
C
wind
direction
speed
KPH
gust
KPH
rain 1hr
cm
rain 24hr
cm
rain mn
cm
humidity
%
barometer
mb
20260502163020 23 156 6.4 11.3 0.00 0.00 0.00 12 1017.5
20260502162019 23 153 6.4 14.5 0.00 0.00 0.00 12 1017.5
20260502161021 23 162 6.4 12.9 0.00 0.00 0.00 12 1017.5
20260502152018 23 182 6.4 11.3 0.00 0.00 0.00 11 1017.3
20260502151018 22 178 3.2 9.7 0.00 0.00 0.00 11 1017.3
20260502123027 17 315 3.2 6.4 0.00 0.00 0.00 14 1016.2
20260502122027 17 317 3.2 4.8 0.00 0.00 0.00 14 1016.2
20260502121027 17 300 3.2 4.8 0.00 0.00 0.00 13 1016.2
20260502115028 17 306 3.2 6.4 0.00 0.00 0.00 13 1016.1
20260502114028 17 292 3.2 4.8 0.00 0.00 0.00 13 1016.1
20260502113030 18 301 1.6 6.4 0.00 0.00 0.00 12 1016.1
20260502112028 18 297 3.2 4.8 0.00 0.00 0.00 12 1016.1
20260502111029 18 306 1.6 4.8 0.00 0.00 0.00 12 1016.1
20260502110029 18 301 3.2 6.4 0.00 0.00 0.00 12 1016.1
20260502105029 18 303 1.6 4.8 0.00 0.00 0.00 12 1016.1
20260502104049 18 310 3.2 6.4 0.00 0.00 0.00 12 1016.0
20260502103030 18 302 3.2 6.4 0.00 0.00 0.00 11 1016.0
20260502102052 18 307 3.2 6.4 0.00 0.00 0.00 11 1016.1
20260502101029 18 298 3.2 6.4 0.00 0.00 0.00 11 1016.2
20260502091031 18 295 3.2 6.4 0.00 0.00 0.00 11 1016.3
20260502071016 19 304 3.2 6.4 0.00 0.00 0.00 11 1016.3
20260502070018 19 288 3.2 4.8 0.00 0.00 0.00 10 1016.2
20260502065019 20 261 1.6 3.2 0.00 0.00 0.00 10 1016.2
20260502064018 20 218 3.2 6.4 0.00 0.00 0.00 9 1016.1
20260502063019 20 242 4.8 6.4 0.00 0.00 0.00 9 1016.1
20260502062039 20 218 3.2 4.8 0.00 0.00 0.00 9 1016.1
20260502061017 21 218 4.8 6.4 0.00 0.00 0.00 10 1016.0
20260502060018 21 202 6.4 8.0 0.00 0.00 0.00 9 1015.9
20260502055018 21 243 4.8 8.0 0.00 0.00 0.00 9 1015.8
20260502054017 21 203 4.8 8.0 0.00 0.00 0.00 9 1015.7
20260502053018 21 203 3.2 6.4 0.00 0.00 0.00 10 1015.7
20260502052019 21 312 4.8 9.7 0.00 0.00 0.00 10 1015.5
20260502051018 21 303 4.8 9.7 0.00 0.00 0.00 10 1015.4
20260502050019 21 322 6.4 14.5 0.00 0.00 0.00 10 1015.3
20260502045020 21 309 4.8 11.3 0.00 0.00 0.00 10 1015.2
20260502044018 21 312 6.4 12.9 0.00 0.00 0.00 10 1015.1
20260502043100 21 306 6.4 14.5 0.00 0.00 0.00 10 1015.0
20260502042017 22 302 6.4 20.9 0.00 0.00 0.00 9 1014.8
20260502041039 22 301 4.8 14.5 0.00 0.00 0.00 9 1014.7
20260502040019 22 298 3.2 9.7 0.00 0.00 0.00 9 1014.6
20260502035020 22 301 3.2 9.7 0.00 0.00 0.00 9 1014.3
20260502034021 22 313 9.7 14.5 0.00 0.00 0.00 9 1014.3
20260502033020 22 315 8.0 16.1 0.00 0.00 0.00 9 1014.1
20260502032020 22 312 8.0 19.3 0.00 0.00 0.00 9 1013.9
20260502031016 22 312 6.4 14.5 0.00 0.00 0.00 10 1013.7
20260502030021 22 310 6.4 17.7 0.00 0.00 0.00 10 1013.6
20260502025021 23 315 6.4 14.5 0.00 0.00 0.00 9 1013.4
20260502024021 23 321 6.4 12.9 0.00 0.00 0.00 9 1013.3
20260502023058 24 330 11.3 16.1 0.00 0.00 0.00 8 1013.2
20260502022017 24 335 11.3 17.7 0.00 0.00 0.00 8 1013.1
20260502021041 25 310 6.4 11.3 0.00 0.00 0.00 8 1013.0
20260502020022 25 335 14.5 22.5 0.00 0.00 0.00 8 1013.0
20260502015017 25 320 14.5 24.1 0.00 0.00 0.00 8 1012.9
20260502014018 25 317 9.7 17.7 0.00 0.00 0.00 8 1012.7
20260502013018 25 326 11.3 20.9 0.00 0.00 0.00 8 1012.7
20260502012018 26 330 14.5 24.1 0.00 0.00 0.00 9 1012.6
20260502011040 26 304 9.7 19.3 0.00 0.00 0.00 9 1012.7
20260502010018 26 330 11.3 25.7 0.00 0.00 0.00 9 1012.6
20260502005019 26 319 9.7 22.5 0.00 0.00 0.00 9 1012.6
20260502004020 26 343 16.1 29.0 0.00 0.00 0.00 9 1012.6
20260502003040 26 348 11.3 20.9 0.00 0.00 0.00 9 1012.6
20260502002019 26 351 14.5 32.2 0.00 0.00 0.00 9 1012.6
20260502001019 26 334 9.7 16.1 0.00 0.00 0.00 9 1012.7
20260502000021 26 344 12.9 29.0 0.00 0.00 0.00 9 1012.7
20260501235100 26 323 14.5 40.2 0.00 0.00 0.00 10 1012.7
20260501234017 26 347 16.1 37.0 0.00 0.00 0.00 10 1012.7
20260501233016 26 356 17.7 41.8 0.00 0.00 0.00 10 1012.7
20260501232020 26 356 14.5 25.7 0.00 0.00 0.00 10 1012.8
20260501231020 26 333 11.3 27.4 0.00 0.00 0.00 10 1012.8
20260501230017 26 324 11.3 27.4 0.00 0.00 0.00 10 1012.9
20260501225017 26 350 12.9 22.5 0.00 0.00 0.00 9 1013.0
20260501224038 26 7 8.0 19.3 0.00 0.00 0.00 9 1013.1
20260501223018 26 354 12.9 27.4 0.00 0.00 0.00 10 1013.2
20260501222038 26 359 12.9 27.4 0.00 0.00 0.00 9 1013.2
20260501221019 26 12 14.5 40.2 0.00 0.00 0.00 11 1013.4
20260501220020 26 339 11.3 27.4 0.00 0.00 0.00 11 1013.5
20260501215040 25 353 11.3 22.5 0.00 0.00 0.00 11 1013.6
20260501214019 26 337 11.3 35.4 0.00 0.00 0.00 11 1013.8
20260501213016 26 345 12.9 35.4 0.00 0.00 0.00 12 1013.8
20260501212021 25 347 11.3 29.0 0.00 0.00 0.00 12 1014.0
20260501211019 25 345 11.3 22.5 0.00 0.00 0.00 13 1014.2
20260501210021 25 335 8.0 16.1 0.00 0.00 0.00 13 1014.2
20260501205019 25 11 8.0 14.5 0.00 0.00 0.00 13 1014.3
20260501204017 25 322 4.8 12.9 0.00 0.00 0.00 14 1014.3
20260501203017 25 322 11.3 27.4 0.00 0.00 0.00 13 1014.3
20260501202021 25 340 6.4 19.3 0.00 0.00 0.00 14 1014.4
20260501201018 25 319 6.4 17.7 0.00 0.00 0.00 14 1014.5
20260501200017 24 321 6.4 14.5 0.00 0.00 0.00 15 1014.7
20260501195018 23 82 1.6 14.5 0.00 0.00 0.00 15 1014.9
20260501194019 23 358 9.7 19.3 0.00 0.00 0.00 15 1015.0
20260501193018 23 360 3.2 14.5 0.00 0.00 0.00 15 1015.1
20260501192018 23 1 9.7 27.4 0.00 0.00 0.00 15 1015.3
20260501191041 23 32 4.8 16.1 0.00 0.00 0.00 15 1015.4
20260501190018 23 332 9.7 16.1 0.00 0.00 0.00 15 1015.4
20260501185019 24 17 9.7 24.1 0.00 0.00 0.00 15 1015.5
20260501184019 23 12 4.8 19.3 0.00 0.00 0.00 15 1015.6
20260501183038 23 5 11.3 19.3 0.00 0.00 0.00 15 1015.7
20260501182019 23 26 8.0 22.5 0.00 0.00 0.00 15 1015.7
20260501181019 23 6 3.2 12.9 0.00 0.00 0.00 15 1015.8
20260501180019 23 354 8.0 16.1 0.00 0.00 0.00 16 1015.8
20260501175017 24 23 3.2 22.5 0.00 0.00 0.00 15 1015.8
20260501174017 23 118 6.4 14.5 0.00 0.00 0.00 15 1015.9
20260501173017 23 75 6.4 16.1 0.00 0.00 0.00 15 1015.9
20260501172020 22 142 4.8 11.3 0.00 0.00 0.00 15 1015.9
20260501171019 22 8 8.0 20.9 0.00 0.00 0.00 17 1015.9
20260501170018 22 3 8.0 19.3 0.00 0.00 0.00 17 1016.0
20260501165057 22 311 8.0 17.7 0.00 0.00 0.00 17 1016.0
20260501164018 22 337 17.7 27.4 0.00 0.00 0.00 17 1015.9